| time (UTC) | temp C | wind direction | speed KPH | gust KPH | rain 1hr cm | rain 24hr cm | rain mn cm | humidity % | barometer mb |
| 20260506035017 | 17 | 45 | 6.4 | 17.7 | 0.00 | 0.00 | 0.00 | 78 | 1007.9 |
| 20260506034017 | 17 | 315 | 4.8 | 12.9 | 0.00 | 0.00 | 0.00 | 78 | 1007.8 |
| 20260506033057 | 17 | 23 | 6.4 | 12.9 | 0.00 | 0.00 | 0.00 | 77 | 1007.4 |
| 20260506032017 | 18 | 23 | 8.0 | 17.7 | 0.00 | 0.00 | 0.00 | 76 | 1007.3 |
| 20260506031017 | 18 | 315 | 6.4 | 9.7 | 0.00 | 0.00 | 0.00 | 76 | 1007.3 |
| 20260506030017 | 18 | 0 | 4.8 | 14.5 | 0.00 | 0.00 | 0.00 | 75 | 1007.1 |
| 20260506025017 | 19 | 338 | 4.8 | 12.9 | 0.00 | 0.00 | 0.00 | 75 | 1007.0 |
| 20260506024017 | 20 | 338 | 6.4 | 17.7 | 0.00 | 0.00 | 0.00 | 75 | 1006.8 |
| 20260506023017 | 20 | 0 | 4.8 | 11.3 | 0.00 | 0.00 | 0.00 | 75 | 1006.6 |
| 20260506022017 | 20 | 338 | 4.8 | 8.0 | 0.00 | 0.00 | 0.00 | 75 | 1006.3 |
| 20260506021017 | 20 | 338 | 4.8 | 11.3 | 0.00 | 0.00 | 0.00 | 74 | 1006.0 |
| 20260506020017 | 20 | 338 | 4.8 | 14.5 | 0.00 | 0.00 | 0.00 | 74 | 1006.0 |
| 20260506015017 | 20 | 23 | 3.2 | 9.7 | 0.00 | 0.00 | 0.00 | 73 | 1005.5 |
| 20260506014017 | 20 | 45 | 4.8 | 12.9 | 0.00 | 0.00 | 0.00 | 73 | 1005.1 |
| 20260506013017 | 20 | 45 | 4.8 | 14.5 | 0.00 | 0.00 | 0.00 | 73 | 1005.4 |
| 20260506012017 | 21 | 45 | 4.8 | 16.1 | 0.00 | 0.00 | 0.00 | 73 | 1004.6 |
| 20260506011017 | 21 | 338 | 4.8 | 9.7 | 0.00 | 0.00 | 0.00 | 72 | 1004.9 |
| 20260506010017 | 21 | 315 | 6.4 | 19.3 | 0.00 | 0.00 | 0.00 | 71 | 1004.5 |
| 20260506005017 | 22 | 315 | 3.2 | 12.9 | 0.00 | 0.00 | 0.00 | 70 | 1004.4 |
| 20260506004017 | 22 | 23 | 4.8 | 12.9 | 0.00 | 0.00 | 0.00 | 69 | 1004.4 |
| 20260506003017 | 22 | 45 | 6.4 | 14.5 | 0.00 | 0.00 | 0.00 | 70 | 1003.8 |
| 20260506002517 | 23 | 338 | 4.8 | 11.3 | 0.00 | 0.00 | 0.00 | 69 | 1003.9 |
| 20260506001517 | 23 | 23 | 4.8 | 14.5 | 0.00 | 0.00 | 0.00 | 69 | 1003.7 |
| 20260506000537 | 24 | 23 | 6.4 | 17.7 | 0.00 | 0.00 | 0.00 | 68 | 1003.7 |
| 20260505235517 | 25 | 338 | 4.8 | 19.3 | 0.00 | 0.00 | 0.00 | 67 | 1003.7 |
| 20260505234517 | 25 | 315 | 4.8 | 12.9 | 0.00 | 0.00 | 0.00 | 66 | 1003.6 |
| 20260505233537 | 26 | 338 | 3.2 | 11.3 | 0.00 | 0.00 | 0.00 | 65 | 1003.5 |
| 20260505232517 | 26 | 315 | 3.2 | 9.7 | 0.00 | 0.00 | 0.00 | 65 | 1003.2 |
| 20260505231517 | 27 | 0 | 4.8 | 9.7 | 0.00 | 0.00 | 0.00 | 64 | 1003.6 |
| 20260505230557 | 27 | 315 | 3.2 | 8.0 | 0.00 | 0.00 | 0.00 | 63 | 1003.3 |
| 20260505225537 | 27 | 315 | 6.4 | 16.1 | 0.00 | 0.00 | 0.00 | 61 | 1003.1 |
| 20260505224517 | 28 | 315 | 4.8 | 11.3 | 0.00 | 0.00 | 0.00 | 61 | 1002.9 |
| 20260505223517 | 28 | 338 | 3.2 | 9.7 | 0.00 | 0.00 | 0.00 | 61 | 1002.7 |
| 20260505222537 | 29 | 270 | 3.2 | 9.7 | 0.00 | 0.00 | 0.00 | 60 | 1002.8 |
| 20260505221517 | 30 | 315 | 4.8 | 9.7 | 0.00 | 0.00 | 0.00 | 57 | 1002.6 |
| 20260505220517 | 30 | 338 | 4.8 | 14.5 | 0.00 | 0.00 | 0.00 | 54 | 1002.6 |
| 20260505215517 | 31 | 338 | 3.2 | 8.0 | 0.00 | 0.00 | 0.00 | 52 | 1002.4 |
| 20260505214517 | 31 | 315 | 4.8 | 11.3 | 0.00 | 0.00 | 0.00 | 51 | 1002.7 |
| 20260505213517 | 32 | 315 | 4.8 | 14.5 | 0.00 | 0.00 | 0.00 | 51 | 1002.6 |
| 20260505212517 | 32 | 315 | 3.2 | 12.9 | 0.00 | 0.00 | 0.00 | 51 | 1002.5 |
| 20260505211517 | 33 | 180 | 4.8 | 11.3 | 0.00 | 0.00 | 0.00 | 50 | 1002.6 |
| 20260505210517 | 33 | 158 | 1.6 | 6.4 | 0.00 | 0.00 | 0.00 | 52 | 1002.6 |
| 20260505205517 | 33 | 180 | 3.2 | 8.0 | 0.00 | 0.00 | 0.00 | 51 | 1002.6 |
| 20260505204517 | 33 | 180 | 3.2 | 9.7 | 0.00 | 0.00 | 0.00 | 50 | 1002.8 |
| 20260505203517 | 34 | 203 | 4.8 | 14.5 | 0.00 | 0.00 | 0.00 | 52 | 1002.9 |
| 20260505202517 | 33 | 225 | 3.2 | 9.7 | 0.00 | 0.00 | 0.00 | 56 | 1003.0 |
| 20260505201517 | 33 | 203 | 6.4 | 17.7 | 0.00 | 0.00 | 0.00 | 53 | 1003.2 |
| 20260505200517 | 33 | 203 | 6.4 | 16.1 | 0.00 | 0.00 | 0.00 | 54 | 1003.2 |
| 20260505195517 | 33 | 203 | 6.4 | 19.3 | 0.00 | 0.00 | 0.00 | 57 | 1003.2 |
| 20260505194537 | 33 | 180 | 3.2 | 12.9 | 0.00 | 0.00 | 0.00 | 56 | 1003.3 |
| 20260505193517 | 33 | 203 | 4.8 | 12.9 | 0.00 | 0.00 | 0.00 | 59 | 1003.4 |
| 20260505192517 | 32 | 203 | 6.4 | 19.3 | 0.00 | 0.00 | 0.00 | 58 | 1003.5 |
| 20260505191514 | 32 | 203 | 6.4 | 16.1 | 0.00 | 0.00 | 0.00 | 59 | 1003.2 |
| 20260505190557 | 32 | 203 | 6.4 | 14.5 | 0.00 | 0.00 | 0.00 | 62 | 1003.2 |
| 20260505185517 | 31 | 203 | 6.4 | 16.1 | 0.00 | 0.00 | 0.00 | 62 | 1003.3 |
| 20260505184537 | 31 | 203 | 4.8 | 14.5 | 0.00 | 0.00 | 0.00 | 63 | 1003.2 |
| 20260505183557 | 30 | 203 | 8.0 | 19.3 | 0.00 | 0.00 | 0.00 | 63 | 1003.5 |
| 20260505182517 | 30 | 203 | 8.0 | 17.7 | 0.00 | 0.00 | 0.00 | 66 | 1003.6 |
| 20260505181520 | 30 | 203 | 9.7 | 20.9 | 0.00 | 0.00 | 0.00 | 64 | 1003.5 |
| 20260505180517 | 30 | 203 | 8.0 | 22.5 | 0.00 | 0.00 | 0.00 | 64 | 1003.5 |
| 20260505175517 | 30 | 203 | 9.7 | 19.3 | 0.00 | 0.00 | 0.00 | 65 | 1003.6 |
| 20260505174517 | 30 | 203 | 9.7 | 27.4 | 0.00 | 0.00 | 0.00 | 64 | 1003.6 |
| 20260505173517 | 30 | 180 | 6.4 | 17.7 | 0.00 | 0.00 | 0.00 | 66 | 1003.4 |
| 20260505172517 | 29 | 203 | 8.0 | 24.1 | 0.00 | 0.00 | 0.00 | 68 | 1003.5 |
| 20260505171558 | 29 | 203 | 8.0 | 19.3 | 0.00 | 0.00 | 0.00 | 68 | 1003.6 |
| 20260505170515 | 28 | 203 | 9.7 | 20.9 | 0.00 | 0.00 | 0.00 | 68 | 1003.5 |
| 20260505165517 | 28 | 203 | 8.0 | 19.3 | 0.00 | 0.00 | 0.00 | 70 | 1003.5 |
| 20260505164517 | 27 | 180 | 6.4 | 16.1 | 0.00 | 0.00 | 0.00 | 72 | 1003.5 |
| 20260505163517 | 27 | 203 | 8.0 | 33.8 | 0.00 | 0.00 | 0.00 | 71 | 1003.4 |
| 20260505162517 | 27 | 203 | 9.7 | 25.7 | 0.00 | 0.00 | 0.00 | 72 | 1003.3 |
| 20260505161537 | 27 | 180 | 9.7 | 20.9 | 0.00 | 0.00 | 0.00 | 72 | 1003.2 |
| 20260505160517 | 27 | 203 | 9.7 | 19.3 | 0.00 | 0.00 | 0.00 | 73 | 1003.3 |
| 20260505152517 | 25 | 180 | 6.4 | 20.9 | 0.00 | 0.00 | 0.00 | 75 | 1003.1 |
| 20260505151517 | 25 | 203 | 6.4 | 16.1 | 0.00 | 0.00 | 0.00 | 76 | 1003.1 |
| 20260505150517 | 25 | 203 | 11.3 | 24.1 | 0.00 | 0.00 | 0.00 | 76 | 1003.0 |
| 20260505140518 | 23 | 203 | 9.7 | 30.6 | 0.00 | 0.00 | 0.00 | 81 | 1002.8 |
| 20260505124537 | 21 | 225 | 9.7 | 22.5 | 0.00 | 0.00 | 0.00 | 86 | 1002.6 |
| 20260505123517 | 21 | 203 | 8.0 | 16.1 | 0.00 | 0.00 | 0.00 | 87 | 1002.3 |
| 20260505122517 | 21 | 180 | 8.0 | 20.9 | 0.00 | 0.00 | 0.00 | 87 | 1002.4 |
| 20260505121517 | 21 | 203 | 8.0 | 17.7 | 0.00 | 0.00 | 0.00 | 87 | 1002.3 |
| 20260505120557 | 21 | 203 | 4.8 | 12.9 | 0.00 | 0.00 | 0.00 | 87 | 1002.2 |
| 20260505115517 | 21 | 203 | 6.4 | 16.1 | 0.00 | 0.00 | 0.00 | 87 | 1002.2 |
| 20260505114537 | 21 | 203 | 8.0 | 17.7 | 0.00 | 0.00 | 0.00 | 87 | 1002.1 |
| 20260505113517 | 21 | 203 | 4.8 | 20.9 | 0.00 | 0.00 | 0.00 | 87 | 1002.0 |
| 20260505112538 | 21 | 180 | 6.4 | 20.9 | 0.00 | 0.00 | 0.00 | 87 | 1001.9 |
| 20260505111517 | 21 | 203 | 8.0 | 22.5 | 0.00 | 0.00 | 0.00 | 87 | 1001.9 |
| 20260505110537 | 21 | 135 | 8.0 | 20.9 | 0.00 | 0.00 | 0.00 | 87 | 1002.0 |
| 20260505101537 | 21 | 180 | 8.0 | 27.4 | 0.00 | 0.00 | 0.00 | 86 | 1002.0 |
| 20260505100517 | 21 | 158 | 8.0 | 19.3 | 0.00 | 0.00 | 0.00 | 86 | 1002.0 |
| 20260505095517 | 21 | 203 | 9.7 | 25.7 | 0.00 | 0.00 | 0.00 | 85 | 1001.9 |
| 20260505094517 | 21 | 180 | 9.7 | 29.0 | 0.00 | 0.00 | 0.00 | 85 | 1002.0 |
| 20260505093517 | 21 | 158 | 11.3 | 25.7 | 0.00 | 0.00 | 0.00 | 84 | 1002.0 |
| 20260505092517 | 21 | 180 | 9.7 | 27.4 | 0.00 | 0.00 | 0.00 | 84 | 1002.2 |
| 20260505091517 | 22 | 203 | 9.7 | 19.3 | 0.00 | 0.00 | 0.00 | 84 | 1002.3 |
| 20260505090517 | 22 | 180 | 8.0 | 24.1 | 0.00 | 0.00 | 0.00 | 84 | 1002.5 |
| 20260505085537 | 22 | 180 | 9.7 | 24.1 | 0.00 | 0.00 | 0.00 | 83 | 1002.5 |
| 20260505084517 | 22 | 203 | 8.0 | 20.9 | 0.00 | 0.00 | 0.00 | 83 | 1002.5 |
| 20260505083517 | 22 | 203 | 9.7 | 20.9 | 0.00 | 0.00 | 0.00 | 82 | 1002.5 |
| 20260505082517 | 22 | 203 | 8.0 | 16.1 | 0.00 | 0.00 | 0.00 | 82 | 1002.6 |
| 20260505081537 | 22 | 180 | 11.3 | 25.7 | 0.00 | 0.00 | 0.00 | 81 | 1002.4 |
| 20260505080517 | 22 | 180 | 6.4 | 19.3 | 0.00 | 0.00 | 0.00 | 80 | 1002.6 |
| 20260505075517 | 22 | 203 | 8.0 | 20.9 | 0.00 | 0.00 | 0.00 | 79 | 1002.5 |
| 20260505074517 | 22 | 203 | 9.7 | 17.7 | 0.00 | 0.00 | 0.00 | 78 | 1002.7 |
| 20260505073517 | 23 | 158 | 8.0 | 17.7 | 0.00 | 0.00 | 0.00 | 78 | 1002.9 |
| 20260505072517 | 23 | 203 | 8.0 | 20.9 | 0.00 | 0.00 | 0.00 | 78 | 1003.0 |
| 20260505071517 | 23 | 203 | 9.7 | 24.1 | 0.00 | 0.00 | 0.00 | 77 | 1003.1 |
| 20260505070517 | 23 | 158 | 8.0 | 25.7 | 0.00 | 0.00 | 0.00 | 76 | 1003.4 |
| 20260505065537 | 23 | 158 | 9.7 | 24.1 | 0.00 | 0.00 | 0.00 | 76 | 1003.5 |
| 20260505064517 | 23 | 203 | 8.0 | 20.9 | 0.00 | 0.00 | 0.00 | 75 | 1003.7 |
| 20260505063517 | 23 | 158 | 9.7 | 19.3 | 0.00 | 0.00 | 0.00 | 75 | 1003.7 |
| 20260505062517 | 23 | 203 | 9.7 | 17.7 | 0.00 | 0.00 | 0.00 | 74 | 1003.8 |
| 20260505061517 | 23 | 180 | 8.0 | 20.9 | 0.00 | 0.00 | 0.00 | 73 | 1003.9 |
| 20260505060517 | 23 | 180 | 9.7 | 20.9 | 0.00 | 0.00 | 0.00 | 73 | 1003.9 |
| 20260505055517 | 24 | 180 | 9.7 | 20.9 | 0.00 | 0.00 | 0.00 | 72 | 1003.9 |
| 20260505054517 | 24 | 203 | 11.3 | 29.0 | 0.00 | 0.00 | 0.00 | 72 | 1003.8 |
| 20260505053517 | 24 | 180 | 8.0 | 20.9 | 0.00 | 0.00 | 0.00 | 72 | 1003.8 |
| 20260505052537 | 24 | 180 | 9.7 | 19.3 | 0.00 | 0.00 | 0.00 | 72 | 1003.8 |
| 20260505051517 | 24 | 203 | 8.0 | 16.1 | 0.00 | 0.00 | 0.00 | 73 | 1003.9 |
| 20260505050517 | 23 | 158 | 8.0 | 17.7 | 0.00 | 0.00 | 0.00 | 73 | 1003.8 |
| 20260505041516 | 23 | 158 | 9.7 | 20.9 | 0.00 | 0.00 | 0.00 | 74 | 1004.1 |
| 20260505040515 | 23 | 203 | 8.0 | 20.9 | 0.00 | 0.00 | 0.00 | 74 | 1004.2 |